Regional Weather Roundup
Issued by NWS

Home | Current Version | Previous Version | Text Only | Print | Product List | Glossary Off
Versions: 1 2 3 4 5 6 7 8 9 10 11 12 13 14 15 16 17 18 19 20 21 22 23 24 25 26 27 28 29 30 31 32 33 34 35 36 37 38 39 40 41 42 43 44 45 46 47 48 49 50

000
ASUS43 KDMX 261507
RWRIA

WEATHER ROUNDUP FOR IOWA
NATIONAL WEATHER SERVICE DES MOINES IA
900 AM CST WED NOV 26 2014

NOTE: "FAIR" INDICATES FEW OR NO CLOUDS BELOW 12,000 FEET WITH NO
SIGNIFICANT WEATHER AND/OR OBSTRUCTIONS TO VISIBILITY.

* - THESE STATIONS ARE NOT NWS STATIONS...THUS NOT UNDER NWS
QUALITY CONTROL.  THEY ALSO DO NOT REPORT WEATHER SUCH
AS PRECIPITATION OR FOG.

IAZ001>003-012>014-020>022-031>034-043>046-261600-
   NORTHWEST IOWA

CITY           SKY/WX    TMP DP  RH WIND       PRES   REMARKS
CARROLL *      CLOUDY    28  27  93 NE10      29.92R WCI  19
CHEROKEE *     LGT SNOW  28  28 100 N12       29.99R WCI  18
DENISON *      LGT SNOW  32  32 100 N8        29.92R WCI  25
LE MARS *      CLOUDY    28  25  86 N21G30    30.04R WCI  15
ORANGE CITY *  FLURRIES  27  21  80 N17G26    30.02R WCI  14
SHELDON *      MIX PCPN  25  23  93 N21G29    30.02R WCI  10
SIOUX CITY     CLOUDY    31  26  82 N26G35    30.02R WCI  17
SPENCER        LGT SNOW  27  24  89 N20       30.02R FOG     WCI  13
STORM LAKE *   MIX PCPN  27  25  93 N14       29.97R WCI  15
$$

IAZ055>058-069>071-079>083-090>094-261600-
   SOUTHWEST IOWA

CITY           SKY/WX    TMP DP  RH WIND       PRES   REMARKS
ATLANTIC *     CLOUDY    34  32  93 N12       29.89R WCI  25
AUDUBON *      CLOUDY    30  27  86 N8        29.91R HAZE    WCI  23
CLARINDA *     DRIZZLE   37  34  87 NW12G17   29.92R WCI  30
COUNCIL BLFS * LGT RAIN  36  36 100 NW14G22   29.91R WCI  27
CRESTON *      CLOUDY    34  34 100 NW18G24   29.85R WCI  23
HARLAN  *      FLURRIES  34  34 100 N16G25    29.94R WCI  23
LAMONI         CLOUDY    35  33  92 W12       29.85R WCI  27
RED OAK *      LGT RAIN  36  34  93 NW18G25   29.91R WCI  25
SHENANDOAH *   MIX PCPN  37  36  93 NW13G22   29.93R WCI  29
$$

IAZ047>049-059>061-072>074-084-261600-
   CENTRAL IOWA

CITY           SKY/WX    TMP DP  RH WIND       PRES   REMARKS
AMES           LGT SNOW  27  24  89 E10       29.93R FOG     WCI  17
ANKENY *       MIX PCPN  28  27  93 E13       29.92R WCI  18
CHARITON *     SNOW      30  28  93 SE12      29.87S VSB 1/2 WCI  21
DES MOINES     LGT SNOW  30  26  85 E9        29.90R FOG     WCI  22
GRINNELL*      LGT SNOW  27  25  93 E14       29.94S VSB 3/4 WCI  15
KNOXVILLE *    FLURRIES  28  27  93 E9G16     29.89S WCI  20
MARSHALLTOWN   LGT SNOW  26  23  88 E14       29.96R VSB 1   WCI  14
PELLA *        LGT SNOW  28  27  93 E8        29.93S VSB 1   WCI  20
PERRY *        LGT SNOW  28  28 100 NE8       29.91R WCI  20
$$

IAZ004>006-015-016-023>025-035-036-261600-
   NORTH CENTRAL IOWA

CITY           SKY/WX    TMP DP  RH WIND       PRES   REMARKS
ALGONA *       LGT SNOW  27  25  93 NE8       30.00R WCI  18
CLARION *      LGT SNOW  25  27 100 E16       29.97R VSB 1   WCI  12
ESTHERVILLE    LGT SNOW  25  23  92 N15       30.02R VSB 1   WCI  13
FORT DODGE *   CLOUDY    27  21  80 E14       29.96R WCI  15
MASON CITY     LGT SNOW  26  21  81 E14       30.01R WCI  14
FOREST CITY *  LGT SNOW  27  27 100 E8        29.99R VSB 1   WCI  18
IOWA FALLS *   LGT SNOW  27  23  86 E12       29.98R WCI  16
$$

IAZ007>011-017>019-026>030-037>042-050>054-066-261600-
   NORTHEAST IOWA

CITY           SKY/WX    TMP DP  RH WIND       PRES   REMARKS
CEDAR RAPIDS   CLOUDY    25  22  88 E10       30.00S WCI  15
CHARLES CITY * MOSUNNY   25  21  86 E12G17    30.03R WCI  14
CLINTON *      SUNNY     21  18  86 E12       30.11S WCI   9
DECORAH *      PTSUNNY   21  18  86 SE8G15    30.05S WCI  12
DUBUQUE        CLOUDY    21  19  92 E15       30.07S FOG     WCI   8
MONTICELLO *   CLOUDY    23  21  93 E8        30.05S WCI  14
OELWEIN *      MOSUNNY   27  21  80 E14       30.03R WCI  15
WATERLOO       CLOUDY    26  21  81 E10       30.01R WCI  16
$$

IAZ064-065-067-068-078-261600-
   EAST CENTRAL IOWA

CITY           SKY/WX    TMP DP  RH WIND       PRES   REMARKS
DAVENPORT      MOSUNNY   22  18  85 E14       30.06S FOG     WCI   9
IOWA CITY      CLOUDY    27  22  81 E8        30.03S WCI  19
MT. PLEASANT * CLOUDY    30  25  80 SE9       29.99R WCI  22
MUSCATINE *    MOSUNNY   28  25  86 E10G16    30.03F WCI  19
QUAD CITIES    SUNNY     24  20  84 E14       30.06S WCI  12
$$

IAZ062-063-075>077-085>089-095>099-261600-
   SOUTHEAST IOWA

CITY           SKY/WX    TMP DP  RH WIND       PRES   REMARKS
BURLINGTON     CLOUDY    29  26  89 SE13      29.99F WCI  19
FAIRFIELD *    PTSUNNY   30  25  80 SE10      29.97R WCI  21
FORT MADISON * PTSUNNY   32  27  80 SE9       30.00R WCI  24
KEOKUK *       CLOUDY    30  27  86 SE12      29.98S WCI  21
OSKALOOSA *    LGT SNOW  28  25  86 E18       29.93F VSB 1   WCI  16
CENTERVILLE *  LGT SNOW  30  30 100 SE8       29.90S WCI  23
OTTUMWA        LGT SNOW  29  25  85 SE15      29.93F VSB 1   WCI  18
WASHINGTON *   CLOUDY    28  28 100 SE12      29.99R WCI  18
$$

ABBREVIATIONS USED IN REMARKS
   TC - TEMPERATURES IN CELSIUS
  WCI - WIND CHILL INDEX
   HX - HEAT INDEX
  VSB - VISIBILITY
$$




USA.gov is the U.S. government's official web portal to all federal, state and local government web resources and services.